, AK

(GMT )
Anchorage

Weather History for PANC - September, 2012

Change the Weather History Date:

Friday, September 21, 2012

  Actual Average Record
Temperature  
Mean Temperature 49 °F 47 °F  
Max Temperature 56 °F 53 °F 67 °F (1995)
Min Temperature 42 °F 40 °F 28 °F (1992)
Degree Days  
Heating Degree Days 16    
Month to date heating degree days 323  
Since 1 July heating degree days 884  
Cooling Degree Days 0    
Month to date cooling degree days 0  
Year to date cooling degree days 0  
Moisture  
Dew Point 47 °F    
Average Humidity 84    
Maximum Humidity 96    
Minimum Humidity 72    
Precipitation  
Precipitation 0.06 in 0.10 in 0.81 in (1996)
Month to date precipitation 5.39 2.11  
Year to date precipitation 15.62 11.40  
Snow  
Snow 0.00 in 0.00 in 0.10 in (1996)
Month to date snowfall 0.0 0.1  
Since 1 June snowfall 0.0  
Since 1 July snowfall 0.0 0.1  
Since 1 September snowfall 0.1  
Snow Depth 0.00 in    
Sea Level Pressure  
Sea Level Pressure 29.75 in    
Wind  
Wind Speed 5 mph (NE)    
Max Wind Speed 13 mph    
Max Gust Speed 23 mph    
Visibility 10 miles    
Events Fog , Rain    
T = Trace of Precipitation, MM = Missing Value Source: NWS Daily Summary

Daily Weather History Graph

Daily Weather History Graph

Search for Another Location

Airport or City:

Trip Planner

Search our weather history database for the weather conditions in past years. The results will help you decide how hot, cold, wet, or windy it might be!

Date:

Astronomy

Sep. 21, 2012 Rise Set
Actual Time 7:43 AM AKDT 8:00 PM AKDT
Civil Twilight 6:59 AM AKDT 8:43 PM AKDT
Nautical Twilight 6:07 AM AKDT 9:36 PM AKDT
Astronomical Twilight 5:09 AM AKDT 10:33 PM AKDT
Moon 4:06 PM AKDT (9/21) 10:21 PM AKDT (9/21)
Length of Visible Light 13h 44m
Length of Day
12h 17m
Waxing Crescent, 39% of the Moon is Illuminated
Sep 21
Waxing Crescent
Sep 22
First Quarter
Sep 29
Full
Oct 7
Last Quarter
Oct 15
New

Hourly Weather History & Observations

Time (AKDT) Temp. Windchill Dew Point Humidity Pressure Visibility Wind Dir Wind Speed Gust Speed Precip Events Conditions
12:22 AM 51.8 °F - 46.4 °F 82% 29.72 in 4.0 mi Variable 4.6 mph - 0.10 in Rain Rain
12:53 AM 50.0 °F - 46.9 °F 89% 29.73 in 4.0 mi SE 6.9 mph - 0.18 in Rain Rain
1:53 AM 50.0 °F - 46.9 °F 89% 29.68 in 10.0 mi East 12.7 mph - 0.11 in Rain Light Rain
2:53 AM 54.0 °F - 46.9 °F 77% 29.72 in 10.0 mi SSE 12.7 mph 23.0 mph 0.00 in   Mostly Cloudy
3:53 AM 53.1 °F - 46.9 °F 80% 29.74 in 10.0 mi SSE 12.7 mph 23.0 mph N/A   Clear
4:53 AM 48.0 °F - 45.0 °F 89% 29.76 in 10.0 mi East 4.6 mph - N/A   Clear
5:53 AM 46.9 °F - 45.0 °F 93% 29.79 in 10.0 mi Calm Calm - N/A   Clear
6:53 AM 46.0 °F - 43.0 °F 89% 29.81 in 10.0 mi Calm Calm - N/A   Scattered Clouds
7:23 AM 44.6 °F - 42.8 °F 93% 29.81 in 10.0 mi Calm Calm - N/A Fog Scattered Clouds
7:53 AM 43.0 °F - 41.0 °F 93% 29.81 in 10.0 mi Calm Calm - N/A Fog Shallow Fog
8:53 AM 46.0 °F - 44.1 °F 93% 29.82 in 10.0 mi Calm Calm - N/A Fog Scattered Clouds
9:10 AM 46.4 °F 45.2 °F 44.6 °F 93% 29.82 in 10.0 mi Variable 3.5 mph - N/A Fog Scattered Clouds
9:53 AM 50.0 °F - 46.0 °F 86% 29.83 in 10.0 mi East 6.9 mph - N/A   Scattered Clouds
10:53 AM 52.0 °F - 46.0 °F 80% 29.83 in 10.0 mi Variable 4.6 mph - N/A   Mostly Cloudy
11:53 AM 55.0 °F - 48.0 °F 77% 29.83 in 10.0 mi North 5.8 mph - N/A   Mostly Cloudy
12:53 PM 55.9 °F - 46.9 °F 72% 29.82 in 10.0 mi Variable 5.8 mph - N/A   Mostly Cloudy
1:53 PM 57.0 °F - 48.0 °F 72% 29.81 in 10.0 mi NE 5.8 mph - N/A   Mostly Cloudy
2:53 PM 57.0 °F - 48.9 °F 74% 29.79 in 10.0 mi Variable 4.6 mph - 0.00 in Rain Light Rain
3:53 PM 57.0 °F - 48.9 °F 74% 29.77 in 10.0 mi NE 5.8 mph - 0.00 in Rain Light Rain
4:53 PM 55.0 °F - 51.1 °F 86% 29.75 in 10.0 mi ENE 3.5 mph - 0.02 in Rain Light Rain
5:53 PM 55.0 °F - 50.0 °F 83% 29.72 in 10.0 mi Calm Calm - 0.01 in Rain Light Rain
6:53 PM 53.1 °F - 50.0 °F 89% 29.69 in 10.0 mi Calm Calm - 0.01 in   Mostly Cloudy
7:53 PM 52.0 °F - 48.9 °F 89% 29.67 in 10.0 mi NW 8.1 mph - N/A   Mostly Cloudy
8:53 PM 52.0 °F - 48.9 °F 89% 29.64 in 10.0 mi NNW 4.6 mph - N/A   Mostly Cloudy
9:53 PM 51.1 °F - 48.9 °F 92% 29.63 in 10.0 mi WNW 5.8 mph - 0.00 in   Mostly Cloudy
10:53 PM 51.1 °F - 48.9 °F 92% 29.60 in 10.0 mi NNW 8.1 mph - 0.00 in Rain Light Rain
11:53 PM 52.0 °F - 48.0 °F 86% 29.57 in 10.0 mi Variable 4.6 mph - 0.00 in   Mostly Cloudy